Location: Unspecified
(48.8656°N, 0.0000°E)
Time: 17:52:39
(UTC+00:00)

Vanguard 1 - Pass Details

Date: 25 June 2019
Orbit: 655 x 3829 km, 34.2° (Epoch: 22 August)

Event Time Altitude Azimuth Distance (km) Brightness Sun altitude
Rises 02:01:44 0° 232° (SW) 7,847 - -13.0°
Reaches altitude 10° 02:08:00 10° 225° (SW) 6,580 - -12.5°
Exits shadow 02:08:59 12° 224° (SW) 6,375 13.6 -12.4°
Maximum altitude 02:25:05 38° 168° (SSE) 3,546 12.5 -11.0°
Drops below altitude 10° 02:35:46 10° 106° (ESE) 4,170 13.5 -10.1°
Sets 02:38:42 0° 98° (E) 4,806 14.0 -9.8°
